Tracking 21076 objects as of 10-Aug-2020
HD Live streaming from Space Station
objects crossing your sky now
Track the most recent launched group of Starlink satellites

SL-8 R/B

Track SL-8 R/B now!
10-day predictions


NORAD ID: 28421
Int'l Code: 2004-037C
Perigee: 1,479.3 km
Apogee: 1,511.3 km
Inclination: 82.5 °
Period: 115.7 minutes
Semi major axis: 7866 km
RCS: 5.1924 m2 (large)
Launch date: September 23, 2004
Source: Commonwealth of Independent States (former USSR) (CIS)
Launch site: PLESETSK MISSILE AND SPACE COMPLEX (PKMTR)

Note: This is a ROCKET BODY
aabbcc
Your satellite tracking list
Your tracking list is empty




NASA's NSSDC Master Catalog

Two Line Element Set (TLE):
1 28421U 04037C   20223.44472628 +.00000105 +00000-0 +67288-3 0  9997
2 28421 082.4791 231.5075 0020319 306.3430 170.2076 12.44370534721171
Source of the keplerian elements: AFSPC